| time (UTC) | temp C | wind direction | speed KPH | gust KPH | rain 1hr cm | rain 24hr cm | rain mn cm | humidity % | barometer mb |
| 20260503230351 | 8 | 0.0 | 0.0 | 0.00 | 0.00 | 0.00 | 10 | 975.4 | |
| 20260503225351 | 8 | 0.0 | 0.0 | 0.00 | 0.00 | 0.00 | 10 | 975.6 | |
| 20260503224351 | 9 | 0.0 | 0.0 | 0.00 | 0.00 | 0.00 | 10 | 975.7 | |
| 20260503223351 | 8 | 0.0 | 0.0 | 0.00 | 0.00 | 0.00 | 10 | 975.8 | |
| 20260503222351 | 8 | 0.0 | 0.0 | 0.00 | 0.00 | 0.00 | 10 | 975.8 | |
| 20260503221351 | 8 | 0.0 | 0.0 | 0.00 | 0.00 | 0.00 | 10 | 975.8 | |
| 20260503220351 | 8 | 0.0 | 0.0 | 0.00 | 0.00 | 0.00 | 10 | 975.8 | |
| 20260503215407 | 9 | 0.0 | 0.0 | 0.00 | 0.00 | 0.00 | 10 | 975.9 | |
| 20260503214411 | 9 | 0.0 | 0.0 | 0.00 | 0.00 | 0.00 | 10 | 976.0 | |
| 20260503213352 | 9 | 0.0 | 0.0 | 0.00 | 0.00 | 0.00 | 10 | 975.9 | |
| 20260503212406 | 10 | 0.0 | 0.0 | 0.00 | 0.00 | 0.00 | 10 | 976.0 | |
| 20260503211351 | 9 | 0.0 | 0.0 | 0.00 | 0.00 | 0.00 | 10 | 976.0 | |
| 20260503210352 | 8 | 0.0 | 0.0 | 0.00 | 0.00 | 0.00 | 10 | 976.1 | |
| 20260503205353 | 9 | 0.0 | 0.0 | 0.00 | 0.00 | 0.00 | 10 | 976.2 | |
| 20260503204351 | 9 | 0.0 | 0.0 | 0.00 | 0.00 | 0.00 | 10 | 976.3 | |
| 20260503203351 | 8 | 0.0 | 0.0 | 0.00 | 0.00 | 0.00 | 10 | 976.2 | |
| 20260503202351 | 7 | 0.0 | 0.0 | 0.00 | 0.00 | 0.00 | 10 | 976.3 | |
| 20260503201351 | 8 | 0.0 | 0.0 | 0.00 | 0.00 | 0.00 | 10 | 976.3 | |
| 20260503200351 | 8 | 0.0 | 0.0 | 0.00 | 0.00 | 0.00 | 10 | 976.3 | |
| 20260503195351 | 9 | 0.0 | 0.0 | 0.00 | 0.00 | 0.00 | 10 | 976.4 | |
| 20260503194352 | 9 | 0.0 | 0.0 | 0.00 | 0.00 | 0.00 | 10 | 976.3 | |
| 20260503193351 | 9 | 0.0 | 0.0 | 0.00 | 0.00 | 0.00 | 10 | 976.5 | |
| 20260503192354 | 10 | 0.0 | 0.0 | 0.00 | 0.00 | 0.00 | 10 | 976.6 | |
| 20260503191351 | 10 | 0.0 | 0.0 | 0.00 | 0.00 | 0.00 | 10 | 976.6 | |
| 20260503190352 | 9 | 0.0 | 0.0 | 0.00 | 0.00 | 0.00 | 10 | 976.6 | |
| 20260503185351 | 9 | 0.0 | 0.0 | 0.00 | 0.00 | 0.00 | 10 | 976.9 | |
| 20260503184351 | 9 | 0.0 | 0.0 | 0.00 | 0.00 | 0.00 | 10 | 976.9 | |
| 20260503183351 | 10 | 0.0 | 0.0 | 0.00 | 0.00 | 0.00 | 10 | 976.9 | |
| 20260503182351 | 10 | 0.0 | 0.0 | 0.00 | 0.00 | 0.00 | 10 | 977.0 | |
| 20260503181406 | 10 | 0.0 | 0.0 | 0.00 | 0.00 | 0.00 | 10 | 976.9 | |
| 20260503180351 | 10 | 0.0 | 0.0 | 0.00 | 0.00 | 0.00 | 10 | 976.9 | |
| 20260503174406 | 11 | 0.0 | 0.0 | 0.00 | 0.00 | 0.00 | 10 | 976.9 | |
| 20260503173352 | 12 | 0.0 | 0.0 | 0.00 | 0.00 | 0.00 | 10 | 976.8 | |
| 20260503172407 | 12 | 0.0 | 0.0 | 0.00 | 0.00 | 0.00 | 90 | 976.7 | |
| 20260503171351 | 12 | 0.0 | 0.0 | 0.00 | 0.00 | 0.00 | 83 | 976.8 | |
| 20260503170352 | 13 | 0.0 | 0.0 | 0.00 | 0.00 | 0.00 | 78 | 976.8 | |
| 20260503150351 | 15 | 0.0 | 0.0 | 0.00 | 0.00 | 0.00 | 38 | 977.3 | |
| 20260503131351 | 15 | 0.0 | 0.0 | 0.00 | 0.00 | 0.00 | 35 | 978.2 | |
| 20260503130353 | 14 | 0.0 | 0.0 | 0.00 | 0.00 | 0.00 | 35 | 978.3 | |
| 20260503110351 | 15 | 0.0 | 0.0 | 0.00 | 0.00 | 0.00 | 35 | 979.5 | |
| 20260503090406 | 12 | 0.0 | 0.0 | 0.00 | 0.00 | 0.00 | 37 | 980.8 | |
| 20260503081350 | 12 | 0.0 | 0.0 | 0.00 | 0.00 | 0.00 | 35 | 981.1 | |
| 20260503080351 | 11 | 0.0 | 0.0 | 0.00 | 0.00 | 0.00 | 38 | 981.2 | |
| 20260503072351 | 11 | 0.0 | 0.0 | 0.00 | 0.00 | 0.00 | 37 | 981.3 | |
| 20260503071351 | 11 | 0.0 | 0.0 | 0.00 | 0.00 | 0.00 | 38 | 981.3 | |
| 20260503070406 | 12 | 0.0 | 0.0 | 0.00 | 0.00 | 0.00 | 37 | 981.2 | |
| 20260503054407 | 8 | 0.0 | 0.0 | 0.00 | 0.00 | 0.00 | 96 | 981.1 | |
| 20260503053350 | 8 | 0.0 | 0.0 | 0.00 | 0.00 | 0.00 | 10 | 981.2 | |
| 20260503052350 | 7 | 0.0 | 0.0 | 0.00 | 0.00 | 0.00 | 10 | 981.2 | |
| 20260503051352 | 7 | 0.0 | 0.0 | 0.00 | 0.00 | 0.00 | 10 | 981.0 | |
| 20260503050350 | 7 | 0.0 | 0.0 | 0.00 | 0.00 | 0.00 | 10 | 981.0 | |
| 20260503045350 | 6 | 0.0 | 0.0 | 0.00 | 0.00 | 0.00 | 10 | 981.1 | |
| 20260503044350 | 6 | 0.0 | 0.0 | 0.00 | 0.00 | 0.00 | 10 | 981.0 | |
| 20260503043406 | 5 | 0.0 | 0.0 | 0.00 | 0.00 | 0.00 | 10 | 980.9 | |
| 20260503042351 | 3 | 0.0 | 0.0 | 0.00 | 0.00 | 0.00 | 10 | 980.7 | |
| 20260503041350 | 2 | 0.0 | 0.0 | 0.00 | 0.00 | 0.00 | 10 | 980.6 | |
| 20260503040352 | 2 | 0.0 | 0.0 | 0.00 | 0.00 | 0.00 | 10 | 980.5 | |
| 20260503035350 | 2 | 0.0 | 0.0 | 0.00 | 0.00 | 0.00 | 10 | 980.3 | |
| 20260503034350 | 2 | 0.0 | 0.0 | 0.00 | 0.00 | 0.00 | 10 | 980.3 | |
| 20260503033351 | 1 | 0.0 | 0.0 | 0.00 | 0.00 | 0.00 | 10 | 980.2 | |
| 20260503032350 | 1 | 0.0 | 0.0 | 0.00 | 0.00 | 0.00 | 10 | 980.0 | |
| 20260503031351 | 1 | 0.0 | 0.0 | 0.00 | 0.00 | 0.00 | 10 | 980.0 | |
| 20260503030351 | 1 | 0.0 | 0.0 | 0.00 | 0.00 | 0.00 | 10 | 980.0 | |
| 20260503025351 | 1 | 0.0 | 0.0 | 0.00 | 0.00 | 0.00 | 10 | 979.9 | |
| 20260503024412 | 1 | 0.0 | 0.0 | 0.00 | 0.00 | 0.00 | 10 | 979.9 | |
| 20260503023350 | 1 | 0.0 | 0.0 | 0.00 | 0.00 | 0.00 | 10 | 979.9 | |
| 20260503022406 | 1 | 0.0 | 0.0 | 0.00 | 0.00 | 0.00 | 10 | 979.9 | |
| 20260503021406 | 2 | 0.0 | 0.0 | 0.00 | 0.00 | 0.00 | 10 | 980.2 | |
| 20260503020352 | 2 | 0.0 | 0.0 | 0.00 | 0.00 | 0.00 | 10 | 980.2 | |
| 20260503015351 | 2 | 0.0 | 0.0 | 0.00 | 0.00 | 0.00 | 10 | 980.1 | |
| 20260503014350 | 2 | 0.0 | 0.0 | 0.00 | 0.00 | 0.00 | 10 | 980.1 | |
| 20260503013350 | 2 | 0.0 | 0.0 | 0.00 | 0.00 | 0.00 | 10 | 980.2 | |
| 20260503012407 | 2 | 0.0 | 0.0 | 0.00 | 0.00 | 0.00 | 10 | 980.2 | |
| 20260503011350 | 2 | 0.0 | 0.0 | 0.00 | 0.00 | 0.00 | 10 | 980.2 | |
| 20260503010405 | 2 | 0.0 | 0.0 | 0.00 | 0.00 | 0.00 | 10 | 980.3 | |
| 20260503005353 | 2 | 0.0 | 0.0 | 0.00 | 0.00 | 0.00 | 10 | 980.2 | |
| 20260503004407 | 2 | 0.0 | 0.0 | 0.00 | 0.00 | 0.00 | 10 | 980.3 | |
| 20260503003350 | 2 | 0.0 | 0.0 | 0.00 | 0.00 | 0.00 | 10 | 980.2 | |
| 20260503002351 | 2 | 0.0 | 0.0 | 0.00 | 0.00 | 0.00 | 10 | 980.2 | |
| 20260503001350 | 2 | 0.0 | 0.0 | 0.00 | 0.00 | 0.00 | 10 | 980.1 | |
| 20260503000350 | 2 | 0.0 | 0.0 | 0.00 | 0.00 | 0.00 | 10 | 980.3 | |
| 20260502235406 | 2 | 0.0 | 0.0 | 0.00 | 0.00 | 0.00 | 10 | 980.3 | |
| 20260502234405 | 2 | 0.0 | 0.0 | 0.00 | 0.00 | 0.00 | 10 | 980.3 | |
| 20260502233350 | 2 | 0.0 | 0.0 | 0.00 | 0.00 | 0.00 | 10 | 980.4 | |
| 20260502232351 | 2 | 0.0 | 0.0 | 0.00 | 0.00 | 0.00 | 10 | 980.4 | |
| 20260502231350 | 3 | 0.0 | 0.0 | 0.00 | 0.00 | 0.00 | 10 | 980.6 |